Regional Weather Roundup
Issued by NWS Newport/Morehead, NC

Current Version | Previous Version | Text Only | Print | Product List | Glossary Off
Versions: 1 2 3 4 5 6 7 8 9 10 11 12 13 14 15 16 17 18 19 20 21 22 23 24 25 26 27 28 29 30 31 32 33 34 35 36 37 38 39 40 41 42 43 44 45 46 47 48 49 50
000 ASUS42 KMHX 211110 RWRMHX WEATHER ROUNDUP FOR EASTERN NORTH CAROLINA NATIONAL WEATHER SERVICE NEWPORT/MOREHEAD CITY NC 700 AM EDT SUN SEP 21 2014 NOTE: "FAIR" INDICATES FEW OR NO CLOUDS BELOW 12,000 FEET WITH NO SIGNIFICANT WEATHER AND/OR OBSTRUCTIONS TO VISIBILITY NCZ015>017-031-032-045>047-102-103-211200- NORTH COAST CITY SKY/WX TMP DP RH WIND PRES REMARKS EDENTON LGT RAIN 70 69 96 N10 29.80S ELIZABETH CITY LGT RAIN 70 69 97 N14 29.79F KITTY HAWK DRIZZLE 71 70 97 N7 29.76S MANTEO RAIN 70 70 98 N13G20 29.76F $$ NCZ045>047-081-094-103-104-211200- CENTRAL COAST CITY SKY/WX TMP DP RH WIND PRES REMARKS FRISCO CLOUDY 70 70 100 NE9G17 29.71S SWANQUARTER N/A 72 N/A N/A N9G15 29.71S $$ NCZ095-097-098-100-101-211200- SOUTHERN COAST CITY SKY/WX TMP DP RH WIND PRES REMARKS BEAUFORT CLOUDY 73 70 90 N16G24 29.74R CEDAR ISLAND N/A 72 N/A N/A N21G28 29.77S JACKSONVILLE CLOUDY 70 68 93 NW13 29.78R NEWPORT NOT AVBL PINEY ISLAND CLOUDY 75 70 84 N16 29.74R WILMINGTON CLOUDY 69 68 96 NW13 29.81R $$ NCZ011>013-027>030-043-044-078>080-089-090>093-098-211200- COASTAL PLAIN CITY SKY/WX TMP DP RH WIND PRES REMARKS AHOSKIE CLOUDY 66 65 94 N6 29.84S CLINTON CLOUDY 68 67 94 N5 29.85S ELIZABETHTOWN CLOUDY 68 66 94 NW7 29.85S GOLDSBORO CLOUDY 69 68 98 NW1 29.82S GREENVILLE CLOUDY 68 68 100 N8 29.84F HAVELOCK CLOUDY 72 70 93 N17 29.77R KENANSVILLE CLOUDY 68 66 94 N5 29.84S KINSTON CLOUDY 68 68 100 N9 29.83R FOG NEW BERN CLOUDY 72 68 87 N12 29.79R RICHLANDS CLOUDY 70 64 83 NW8 29.81R ROANOKE RAPIDS NOT AVBL ROCKY MOUNT MOCLDY 67 64 90 N7 29.86R WASHINGTON CLOUDY 68 67 96 N8 29.81R WHITEVILLE DRIZZLE 67 65 93 CALM 29.85S $$ AMZ130-135-150-152-154-156-158-170-250-252-270-ANZ085-086-088-633-658-670-211200- MARINE OBSERVATIONS STATION/POSITION TIME TEMP WIND PRES WAVE SWELL AIR SEA DIR/SP/G HT/PER HT/PER (UTC) (F) (DEG/KT/KT) (MB) (FT/S) (FT/S) CHESAPEAKE LIGHT 1000 71 10/ 13/ 14 1010.7 BUOY 44014 1100 72 70 70/ 6/ 8 1007.8 8/ 9 8/ 9 DUCK 1100 72 74 30/ 15/ 17 1007.6 2E DUCK 1100 N/A 5/ 8 2/11 OREGON INLET 1100 72 74 20/ 12/ 18 1006.9 BUOY 44095 1100 74 N/A 8/ 9 2/11 20E OREGON INLET NOT AVBL HATTERAS CG 1100 73 74 10/ 18/ 21 1006.2 DIAMOND BUOY 1100 73 320/ 12/ 16 1005.1 8/ 8 7/ 8 CAPE LOOKOUT 1000 72 10/ 15/ 19 1005.6 BEAUFORT LAB 1100 72 74 360/ 15/ 20 1006.1 30 SE NEW RIVER 1000 76 83 350/ 23/ 29 1005.7 5 SE WRIGHTSVILL 1000 70 79 350/ 19/ 23 N/A BUOY 41002 1004 79 82 210/ 23/ 27 1008.4 11/ 7 BUOY 41004 1100 75 81 320/ 17/ 21 1011.0 6/ 7 3/ 9 $$

USA.gov is the U.S. government's official web portal to all federal, state and local government web resources and services.